Location: Napier
(39.4830°S, 176.9170°E)
Time: 13:53:05
(UTC+13:00)

Cosmos 1869 - Pass Details

Date: 24 January 2019
Orbit: 537 x 547 km, 82.5° (Epoch: 19 February)

Event Time Altitude Azimuth Distance (km) Brightness Sun altitude
Rises 20:59:01 0° 11° (N) 2,703 6.5 -4.8°
Reaches altitude 10° 21:01:14 10° 18° (NNE) 1,818 5.5 -5.1°
Maximum altitude 21:04:59 40° 87° (E) 819 3.8 -5.8°
Drops below altitude 10° 21:08:48 10° 157° (SSE) 1,839 6.1 -6.4°
Sets 21:11:03 0° 164° (SSE) 2,739 7.1 -6.8°
